Location: Bush Observatory
(40.2653°N, 94.3194°W)
Time: 13:58:03
(UTC-06:00)

Daily predictions for brighter satellites

Satellite Brightness Start Highest point End
(mag) Time Altitude Azimuth Time Altitude Azimuth Time Altitude Azimuth
MSX 4.1 17:12:57 10° S 17:18:43 79° WSW 17:24:32 10° NNW
Meteor 1-18 Rocket 4.4 17:14:35 10° S 17:20:09 83° W 17:25:50 10° N
USA 238 DEB 4.1 17:14:35 10° NNW 17:21:26 47° NE 17:28:19 10° ESE
USA 238 4.1 17:14:42 10° NNW 17:21:32 47° NE 17:28:24 10° ESE
IDEFIX/ARIANE 42P 3.9 17:18:43 10° S 17:23:38 44° W 17:28:36 10° NNW
CSL-04 Debris 4.3 17:19:30 10° SSE 17:24:44 56° ENE 17:30:01 10° N
CZ-4 R/B 2.0 17:21:53 10° SE 17:25:19 31° ENE 17:28:49 10° N
Cosmos 1655 Rocket 4.1 17:20:09 10° N 17:26:31 67° E 17:32:52 10° SSE
Cosmos 2298 Rocket 4.4 17:23:02 10° SSW 17:28:19 71° WNW 17:33:39 10° NNE
Cosmos 2026 Rocket 4.2 17:22:37 10° N 17:29:02 84° W 17:35:20 10° S
Cosmos 2369 4.4 17:25:37 10° S 17:30:43 36° ESE 17:35:53 10° NE
IRAS Rocket 4.2 17:26:12 10° SSE 17:31:39 73° ENE 17:37:07 10° N
Cosmos 2278 4.4 17:26:40 10° SSE 17:31:44 35° ESE 17:36:50 10° NE
Hubble Space Telescope 3.3 17:31:40 10° SW 17:34:09 15° S 17:36:38 10° SSE
Meteor 1-28 Rocket 3.3 17:37:09 10° NNE 17:40:52 57° E 17:44:35 10° S
CSL-04 Rocket 3.7 17:37:35 10° SSE 17:43:00 90° E 17:48:32 10° NNW
Cosmos 1455 Rocket 3.0 17:39:13 10° N 17:43:36 62° E 17:47:56 10° SSE
DELTA 2 R/B (1) 3.6 17:38:14 10° W 17:43:48 83° S 17:49:04 12° E
METEOR-M 4.5 17:41:05 10° SE 17:46:04 42° ENE 17:51:04 10° N
Meteor 1-19 Rocket 4.2 17:41:37 10° S 17:47:15 75° E 17:53:02 10° NNE
Cosmos 1544 Rocket 3.4 17:43:23 10° N 17:47:45 76° E 17:52:04 10° SSE
AQUARIUS 4.1 17:43:28 10° SSE 17:47:58 83° ENE 17:52:29 10° N
Cosmos 1743 2.7 17:45:14 10° N 17:49:08 87° W 17:53:01 10° S
NOSS 3-2 (A) 4.3 17:43:44 10° NNW 17:50:54 46° NE 17:58:39 10° ESE
Cosmos 1697 Rocket 3.5 17:47:14 10° SSE 17:52:07 31° ESE 17:56:12 14° NE
YAOGAN 1 2.8 17:48:02 10° SE 17:52:11 47° ENE 17:56:20 10° N
CZ-2C R/B 3.8 17:50:17 10° NNE 17:54:57 65° ESE 17:59:40 10° S
USA 116 3.1 17:54:14 10° NNE 17:57:24 63° ESE 18:00:27 10° S
NOSS 3-2 (C) 4.4 17:50:49 10° NNW 17:57:48 40° NE 18:05:20 10° ESE
Cosmos 2082 3.7 17:57:07 10° NNW 18:02:41 58° ENE 18:08:12 10° SE
ATLAS 2AS CENTAUR R/B 3.5 17:55:58 10° SW 18:03:39 61° NW 18:11:44 10° NNE
SMAP 3.5 17:59:22 10° S 18:03:58 65° WSW 18:08:36 10° NNW
CZ-4 R/B 4.4 18:00:45 10° SSE 18:04:49 61° ENE 18:08:55 10° N
ATLAS 3B R/B 2.5 18:00:26 10° NNW 18:07:08 83° ENE 18:13:37 10° SE
COSMO-SKYMED 1 2.7 18:03:56 10° NNE 18:08:11 52° E 18:12:24 10° S
Cosmos 468 4.5 18:02:52 10° NNW 18:08:14 81° ENE 18:13:31 10° SSE
Landsat 4 3.7 18:04:28 10° NNE 18:08:16 62° E 18:12:02 10° S
Cosmos 158 Rocket 3.8 18:05:07 10° NNW 18:10:14 82° ENE 18:15:11 10° SSE
NOSS 5 (C) 4.5 18:07:14 10° SW 18:11:14 85° NW 18:13:10 23° NNE
MOS 1 4.3 18:09:18 10° SSE 18:14:53 61° ENE 18:20:29 10° N
Cosmos 2227 Rocket 2.2 18:09:34 10° NNW 18:15:16 88° WSW 18:20:55 10° SSE
SJ 16-02 1.2 18:11:10 10° SSW 18:15:32 84° ESE 18:19:26 13° NNE
ERS-2 2.3 18:12:12 10° SSE 18:15:43 46° ENE 18:19:16 10° N
USA 215 3.8 18:09:18 10° SSE 18:15:46 62° SW 18:22:15 10° NW
ALOS 2.4 18:12:46 10° SE 18:17:14 47° ENE 18:21:43 10° N
Cosmos 1271 Rocket 4.3 18:15:02 10° NNW 18:18:34 37° W 18:22:08 10° SSW
NOSS 3-4 (A) 3.6 18:18:57 10° SSW 18:24:58 55° ESE 18:28:35 25° NE
NOSS 3-4 (C) 3.6 18:19:04 10° SSW 18:25:04 54° ESE 18:28:39 25° NE
Meteor 1-23 Rocket 4.2 18:20:55 10° S 18:26:40 76° E 18:32:22 10° NNE
Meteor 2-9 Rocket 4.3 18:21:46 10° NNW 18:27:16 74° W 18:32:36 10° S
SPOT 3 Rocket 3.5 18:25:12 10° SSE 18:30:19 65° ENE 18:35:27 10° N
Meteor 2-11 Rocket 4.5 18:24:49 10° S 18:30:48 57° E 18:36:48 10° NNE
Okean 1-7 Rocket 4.0 18:27:13 10° SSE 18:31:18 39° E 18:31:34 38° E
Atlas Centaur 2 3.9 18:28:39 10° WSW 18:32:24 20° SSW 18:35:38 10° SSE
Cosmos 1980 Rocket 2.7 18:27:21 10° S 18:32:33 39° ESE 18:34:02 33° ENE
Abrixas rocket 4.2 18:38:21 10° NW 18:40:23 19° NNW 18:40:23 19° NNW
Cosmos 1025 Rocket 2.9 18:36:55 10° S 18:41:11 69° E 18:42:41 39° NNE
Cosmos 2297 Rocket 2.6 18:36:25 10° NNW 18:42:01 63° WSW 18:47:34 10° S
Thor Agena Rocket 4.3 18:44:03 33° ESE 18:44:03 33° ESE 18:48:04 10° SSE
Cosmos 724 4.4 18:38:35 10° NW 18:44:22 75° WSW 18:50:10 10° SSE
ISS -1.9 18:42:18 10° WNW 18:45:13 29° SW 18:47:12 16° S
Cosmos 1241 Rocket 4.4 18:40:03 10° SSW 18:46:26 84° ESE 18:49:51 29° NNE
RESURS DK-1 4.2 18:43:19 10° SSE 18:44:47 19° SSE 18:44:47 19° SSE
CENTAUR R/B 3.5 18:41:06 10° NNW 18:48:19 38° NE 18:50:09 35° ENE
PSLV R/B 3.9 18:47:07 10° W 18:49:35 50° WNW 18:49:35 50° WNW
Cosmos 1656 4.3 18:46:30 10° SW 18:51:58 55° WNW 18:56:01 18° N
Nadezhda 2 Rocket 4.5 18:48:15 10° N 18:54:36 89° E 19:01:00 10° S
Cosmos 1269 Rocket 4.4 18:49:51 10° NNW 18:55:07 65° WSW 19:00:20 10° S
Cosmos 494 Rocket 3.9 18:53:26 10° NNW 18:58:38 59° ENE 18:58:38 59° ENE
DNEPR-1 R/B 4.4 18:54:00 10° NNW 18:58:32 47° NE 18:58:32 47° NE
CZ-4 R/B 4.3 18:57:48 10° SW 19:00:25 17° W 19:03:06 10° NW
Cosmos 2084 3.4 18:56:32 10° SSW 19:00:18 70° SSW 19:00:18 70° SSW
BREEZE-M DEB (TANK) 4.0 19:01:26 10° NW 19:04:50 72° NNE 19:05:59 55° E
SL-16 R/B 4.3 19:07:51 10° SSE 19:08:18 12° SSE 19:08:18 12° SSE
Cosmos 2360 4.1 19:11:58 10° SSW 19:17:41 85° ESE 19:18:05 78° NE
Cosmos 2322 Rocket 4.4 19:13:33 10° SSE 19:13:50 11° SSE 19:13:50 11° SSE
Gblst 52 Del rocket 4.2 19:16:18 10° NW 19:22:04 76° NE 19:22:04 76° NE
SL-24 R/B - RUBIN 2 4.3 19:16:06 10° SW 19:22:21 78° WNW 19:23:07 67° N
DELTA 2 R/B (1) 3.7 19:24:40 10° W 19:29:50 69° SW 19:29:50 69° SW
S3M 4.0 19:29:29 10° S 19:34:50 70° S 19:34:50 70° S
Cosmos 1697 Rocket 3.9 19:30:44 10° SW 19:35:56 37° WNW 19:37:59 28° NNW
Cosmos 1980 Rocket 3.9 20:11:40 10° WSW 20:15:52 29° WNW 20:15:52 29° WNW
CENTAUR R/B 3.8 20:31:37 10° NW 20:37:24 48° WNW 20:37:24 48° WNW
